STARLINK-1295 (45373 NORAD) Tracking and Keplerian Element Data

This shows tracking and keplerian element data for the satellite.

Feedback or suggestion? Click here.




ElementValue
Catalog45373
NameSTARLINK-1295
Epoch Orbit1763
Epoch Day189.91668981
Epoch Year2020
RAAN102.6783
Inclination53.0005
Eccentricity0.0001889
Argument of Perigee85.5007
Mean Anonmoly324.1101
Mean Motion15.05614484
Decay Rate-0.00032781
L11 45373U 20019P 20189.91668981 -.00032781 00000-0 -22389-2 0 9991
L22 45373 53.0005 102.6783 0001889 85.5007 324.1101 15.05614484 17632

Live tracking and technical data element details for STARLINK-1295 (NORAD 45373). STARLINK-1295 can be tracked NOW for your location showing map with azimuth and elevation plus other details from your city location.

Track the satellite on the map from your city or location and see movement details for azimuth, elevation, latitude, longitude, range, height, and movement on the map or in text.







IsCatalogInMostPopularTable: catalog: 45373, numindb: 26
Update: records affected: 1



GetName: 45373 STARLINK-1295

Hit Count: updated at: Fri, 10 Jul 2020 04:02:36 GMT